TimeCDT,TemperatureF,Dew PointF,Humidity,Sea Level PressureIn,VisibilityMPH,Wind Direction,Wind SpeedMPH,Gust SpeedMPH,PrecipitationIn,Events,Conditions,WindDirDegrees,DateUTC
12:53 AM,75.0,72.0,90,30.04,7.0,Calm,Calm,-,N/A,,Clear,0,2013-09-05 05:53:00
1:53 AM,73.9,72.0,93,30.05,5.0,Calm,Calm,-,N/A,,Clear,0,2013-09-05 06:53:00
2:53 AM,73.0,71.1,93,30.05,5.0,Calm,Calm,-,N/A,,Clear,0,2013-09-05 07:53:00
3:53 AM,73.0,71.1,93,30.04,6.0,Calm,Calm,-,N/A,,Clear,0,2013-09-05 08:53:00
4:53 AM,73.0,71.1,93,30.05,7.0,Calm,Calm,-,N/A,,Clear,0,2013-09-05 09:53:00
5:53 AM,73.0,71.1,93,30.06,5.0,Calm,Calm,-,N/A,,Clear,0,2013-09-05 10:53:00
6:53 AM,72.0,71.1,97,30.08,2.5,Calm,Calm,-,N/A,,Clear,0,2013-09-05 11:53:00
7:02 AM,73.4,71.6,94,30.10,3.0,Calm,Calm,-,N/A,,Partly Cloudy,0,2013-09-05 12:02:00
7:53 AM,73.9,73.0,97,30.09,4.0,Calm,Calm,-,0.01,,Clear,0,2013-09-05 12:53:00
8:53 AM,78.1,73.9,87,30.10,7.0,Calm,Calm,-,N/A,,Overcast,0,2013-09-05 13:53:00
9:53 AM,81.0,75.0,82,30.12,10.0,Calm,Calm,-,N/A,,Partly Cloudy,0,2013-09-05 14:53:00
10:53 AM,86.0,73.9,67,30.12,10.0,East,5.8,-,N/A,,Overcast,90,2013-09-05 15:53:00
11:53 AM,88.0,72.0,59,30.10,10.0,NE,4.6,-,N/A,,Scattered Clouds,50,2013-09-05 16:53:00
12:30 PM,89.6,73.4,59,30.11,10.0,Variable,4.6,-,N/A,,Mostly Cloudy,0,2013-09-05 17:30:00
12:46 PM,89.6,73.4,59,30.11,10.0,ENE,4.6,-,N/A,,Mostly Cloudy,70,2013-09-05 17:46:00
12:53 PM,88.0,72.0,59,30.09,10.0,NNE,3.5,-,N/A,,Mostly Cloudy,30,2013-09-05 17:53:00
1:53 PM,88.0,72.0,59,30.06,10.0,SSE,10.4,-,N/A,,Mostly Cloudy,160,2013-09-05 18:53:00
2:53 PM,89.1,73.0,59,30.05,10.0,South,6.9,-,N/A,,Clear,190,2013-09-05 19:53:00
3:53 PM,82.0,73.9,76,30.04,10.0,Calm,Calm,-,0.00,Rain,Light Rain,0,2013-09-05 20:53:00
4:53 PM,84.9,73.9,69,30.05,10.0,SSE,6.9,-,0.00,,Overcast,160,2013-09-05 21:53:00
5:53 PM,82.9,72.0,69,30.04,10.0,SSE,8.1,-,N/A,,Clear,160,2013-09-05 22:53:00
6:53 PM,80.1,72.0,76,30.05,10.0,Calm,Calm,-,N/A,,Clear,0,2013-09-05 23:53:00
7:53 PM,78.1,72.0,81,30.06,10.0,SSW,3.5,-,N/A,,Clear,210,2013-09-06 00:53:00
8:53 PM,75.9,72.0,87,30.07,10.0,Calm,Calm,-,N/A,,Clear,0,2013-09-06 01:53:00
9:53 PM,75.0,72.0,90,30.09,10.0,Calm,Calm,-,N/A,,Clear,0,2013-09-06 02:53:00
10:53 PM,75.0,72.0,90,30.09,8.0,Calm,Calm,-,N/A,,Clear,0,2013-09-06 03:53:00
11:53 PM,73.0,71.1,93,30.07,5.0,Calm,Calm,-,N/A,,Clear,0,2013-09-06 04:53:00